TimeCST,TemperatureF,Dew PointF,Humidity,Sea Level PressureIn,VisibilityMPH,Wind Direction,Wind SpeedMPH,Gust SpeedMPH,PrecipitationIn,Events,Conditions,WindDirDegrees,DateUTC
12:53 AM,60.1,55.0,83,29.89,10.0,East,5.8,-,N/A,,Clear,90,2013-02-24 06:53:00
1:16 AM,60.8,55.4,82,29.89,10.0,East,8.1,-,N/A,,Scattered Clouds,100,2013-02-24 07:16:00
1:27 AM,60.8,55.4,82,29.89,10.0,SE,9.2,-,N/A,,Mostly Cloudy,130,2013-02-24 07:27:00
1:53 AM,60.1,55.0,83,29.88,10.0,SE,6.9,-,N/A,,Overcast,130,2013-02-24 07:53:00
2:53 AM,60.1,55.0,83,29.86,10.0,SE,8.1,-,N/A,,Overcast,140,2013-02-24 08:53:00
3:53 AM,61.0,57.0,87,29.84,10.0,SE,8.1,-,N/A,,Overcast,130,2013-02-24 09:53:00
4:53 AM,62.1,57.0,84,29.83,10.0,SSE,6.9,-,N/A,,Overcast,150,2013-02-24 10:53:00
5:53 AM,62.6,57.2,82,29.81,10.0,ENE,10.4,-,N/A,,Overcast,70,2013-02-24 11:53:00
6:53 AM,62.6,57.2,82,29.80,10.0,East,11.5,-,N/A,,Mostly Cloudy,80,2013-02-24 12:53:00
7:03 AM,62.6,57.2,82,29.81,10.0,East,5.8,-,N/A,,Scattered Clouds,80,2013-02-24 13:03:00
7:22 AM,62.6,57.2,82,29.83,10.0,ENE,3.5,-,N/A,,Mostly Cloudy,70,2013-02-24 13:22:00
7:46 AM,64.4,57.2,77,29.82,10.0,Calm,Calm,-,N/A,,Overcast,0,2013-02-24 13:46:00
7:53 AM,64.0,57.9,80,29.82,10.0,Calm,Calm,-,N/A,,Overcast,0,2013-02-24 13:53:00
8:43 AM,64.4,57.2,77,29.85,10.0,Calm,Calm,-,N/A,,Overcast,0,2013-02-24 14:43:00
8:53 AM,64.9,57.9,78,29.84,10.0,Calm,Calm,-,N/A,,Overcast,0,2013-02-24 14:53:00
9:53 AM,66.0,59.0,78,29.85,10.0,SE,3.5,-,N/A,,Overcast,140,2013-02-24 15:53:00
10:05 AM,66.2,60.8,83,29.84,10.0,ESE,5.8,-,N/A,,Overcast,120,2013-02-24 16:05:00
10:53 AM,70.0,61.0,73,29.83,10.0,ESE,5.8,-,N/A,,Overcast,110,2013-02-24 16:53:00
11:53 AM,72.0,61.0,68,29.81,10.0,ESE,8.1,-,N/A,,Overcast,110,2013-02-24 17:53:00
12:53 PM,75.0,62.1,64,29.76,10.0,SE,9.2,-,N/A,,Overcast,140,2013-02-24 18:53:00
1:43 PM,77.0,62.6,61,29.72,10.0,SE,8.1,-,N/A,,Overcast,130,2013-02-24 19:43:00
1:53 PM,78.1,63.0,60,29.70,10.0,East,9.2,-,N/A,,Overcast,90,2013-02-24 19:53:00
2:00 PM,77.0,62.6,61,29.70,10.0,ESE,6.9,-,N/A,,Overcast,110,2013-02-24 20:00:00
2:53 PM,79.0,62.1,56,29.66,10.0,SSE,8.1,-,N/A,,Mostly Cloudy,160,2013-02-24 20:53:00
3:53 PM,79.0,62.1,56,29.65,10.0,SE,9.2,-,N/A,,Mostly Cloudy,140,2013-02-24 21:53:00
4:53 PM,79.0,62.1,56,29.63,10.0,SE,8.1,-,N/A,,Clear,140,2013-02-24 22:53:00
5:53 PM,79.0,62.1,56,29.63,10.0,SE,9.2,-,N/A,,Clear,140,2013-02-24 23:53:00
6:53 PM,77.0,61.0,58,29.64,10.0,SE,8.1,-,N/A,,Clear,140,2013-02-25 00:53:00
7:53 PM,73.9,62.1,66,29.65,10.0,SE,10.4,-,N/A,,Clear,140,2013-02-25 01:53:00
8:53 PM,71.1,62.1,73,29.64,10.0,SE,9.2,-,N/A,,Clear,140,2013-02-25 02:53:00
9:53 PM,70.0,63.0,78,29.65,10.0,SSE,9.2,-,N/A,,Clear,150,2013-02-25 03:53:00
10:50 PM,69.8,64.4,83,29.64,10.0,SSE,11.5,-,N/A,,Mostly Cloudy,160,2013-02-25 04:50:00
10:53 PM,70.0,64.9,84,29.64,10.0,SSE,9.2,-,N/A,,Mostly Cloudy,160,2013-02-25 04:53:00
11:06 PM,69.8,66.2,88,29.64,10.0,SSE,15.0,19.6,N/A,,Overcast,160,2013-02-25 05:06:00
11:53 PM,71.1,66.0,84,29.62,10.0,South,11.5,-,N/A,,Overcast,170,2013-02-25 05:53:00